User: anonymous   Login
Location: Unspecified
(0.0000°N, 0.0000°E)
Time: 06:10:07
(UTC+00:00)
Language:

USA 37 - Orbit

View from above orbital plane
View from above orbital plane
View from above satellite
View from above satellite

Ground track
Ground track

The orbit data is extracted from the following two-line orbital elements,

1 19976U 89035A   17145.08350313 0.00000000  00000-0  00000-0 0    01
2 19976   8.0281   8.2956 0980689 277.4630  71.5224  1.00270000    03
Epoch (UTC): 25 May 2017 02:00:14
Eccentricity: 0.0980689
inclination: 8.0281°
perigee height: 31651 km
apogee height: 39922 km
right ascension of ascending node: 8.2956°
argument of perigee: 277.4630°
revolutions per day: 1.00270000
mean anomaly at epoch: 71.5224°
orbit number at epoch: 0

The dashed part of the orbit path shows where the satellite is in the earth's shadow,  

DLR